Precipitable_Water
1.75 1.79 1.91 1.87 1.83 1.80 1.80 1.75 1.69 1.61 1.54 1.53 1.53 1.52 1.52 1.49 1.45 1.43 1.41 1.39 1.39 1.38 1.36 1.35 1.33 1.33 1.33 1.32 1.29 1.29 1.30 1.32 1.37 1.42 1.48 1.54 1.59 1.60 1.62 1.64 1.66 1.68 1.68 1.67 1.71 1.72 1.74 1.77 1.74 1.72 1.64 1.54 1.48 1.41 1.36 1.33 1.29 1.25 1.11 0.99 0.93 0.92 0.92 0.94 0.95 0.95 0.94 0.93 0.94 0.93 0.95 0.98 1.03 1.05 1.03 1.01 0.99 0.95 1.01 1.05 1.04 1.01 1.01 0.96 0.95
1.76 1.87 1.95 1.92 1.85 1.80 1.73 1.69 1.59 1.51 1.52 1.52 1.53 1.54 1.55 1.52 1.49 1.45 1.42 1.41 1.39 1.37 1.33 1.32 1.32 1.31 1.31 1.31 1.31 1.32 1.33 1.35 1.38 1.43 1.47 1.52 1.58 1.62 1.67 1.66 1.65 1.68 1.68 1.72 1.69 1.73 1.72 1.64 1.55 1.50 1.46 1.41 1.31 1.21 1.10 1.04 1.06 1.07 1.07 1.03 1.00 0.98 0.97 0.97 0.96 0.94 0.91 0.89 0.92 0.95 0.96 0.94 1.02 1.07 1.11 1.10 1.01 0.99 1.01 1.01 0.98 0.98 0.96 0.94 0.95
1.90 1.84 1.83 1.86 1.89 1.77 1.70 1.61 1.54 1.53 1.58 1.58 1.57 1.55 1.52 1.48 1.45 1.41 1.38 1.37 1.34 1.31 1.28 1.29 1.30 1.30 1.30 1.31 1.31 1.31 1.31 1.33 1.35 1.38 1.43 1.47 1.52 1.57 1.63 1.65 1.66 1.67 1.68 1.68 1.63 1.62 1.47 1.38 1.37 1.31 1.28 1.23 1.15 1.05 0.95 0.93 1.01 1.06 1.07 1.08 1.07 1.03 0.96 0.94 0.93 0.92 0.94 0.95 0.99 1.02 1.01 0.99 1.01 1.08 1.06 1.04 0.99 0.95 0.95 0.94 0.93 0.99 1.01 1.01 0.99
1.80 1.85 1.81 1.84 1.78 1.74 1.65 1.59 1.58 1.59 1.57 1.55 1.52 1.49 1.45 1.42 1.38 1.36 1.37 1.36 1.32 1.29 1.30 1.33 1.33 1.33 1.34 1.35 1.35 1.34 1.34 1.34 1.35 1.36 1.36 1.39 1.46 1.52 1.54 1.57 1.58 1.55 1.53 1.49 1.44 1.39 1.37 1.36 1.39 1.39 1.29 1.17 1.07 0.94 0.91 0.96 1.08 1.15 1.19 1.15 1.13 1.11 1.06 1.01 0.99 0.99 1.01 1.01 1.01 1.00 1.01 1.02 1.01 1.05 1.07 1.02 0.97 0.98 0.98 0.98 1.03 1.06 1.13 1.13 1.08
1.87 1.78 1.73 1.71 1.75 1.65 1.60 1.59 1.58 1.56 1.53 1.50 1.48 1.46 1.46 1.44 1.42 1.42 1.39 1.34 1.32 1.30 1.29 1.31 1.32 1.32 1.33 1.34 1.34 1.33 1.33 1.34 1.35 1.38 1.41 1.40 1.38 1.42 1.48 1.51 1.50 1.49 1.48 1.47 1.46 1.44 1.44 1.46 1.51 1.48 1.32 1.18 1.00 0.89 0.94 1.04 1.13 1.22 1.24 1.23 1.20 1.19 1.15 1.09 1.06 1.03 1.01 1.00 0.97 1.01 1.01 1.00 0.99 1.08 1.10 1.04 1.01 1.01 1.00 1.05 1.05 1.08 1.12 1.15 1.16
1.70 1.66 1.70 1.75 1.71 1.63 1.62 1.62 1.57 1.54 1.54 1.53 1.50 1.48 1.46 1.44 1.41 1.37 1.34 1.33 1.32 1.31 1.33 1.34 1.35 1.36 1.35 1.33 1.32 1.32 1.32 1.32 1.33 1.35 1.40 1.44 1.48 1.48 1.44 1.44 1.44 1.45 1.45 1.41 1.44 1.48 1.49 1.53 1.54 1.48 1.36 1.18 0.97 0.91 1.02 1.12 1.19 1.28 1.31 1.31 1.31 1.27 1.23 1.17 1.11 1.04 1.02 1.01 1.00 1.04 1.02 1.00 0.99 1.01 1.06 1.03 1.05 1.11 1.13 1.09 1.08 1.11 1.12 1.16 1.16
1.61 1.68 1.71 1.74 1.72 1.69 1.68 1.64 1.61 1.58 1.55 1.52 1.51 1.48 1.45 1.43 1.43 1.43 1.43 1.42 1.40 1.38 1.37 1.37 1.37 1.38 1.38 1.37 1.35 1.34 1.34 1.34 1.36 1.36 1.40 1.44 1.49 1.54 1.56 1.57 1.57 1.54 1.47 1.42 1.46 1.52 1.53 1.56 1.53 1.44 1.31 1.13 0.97 0.97 1.09 1.23 1.29 1.30 1.30 1.32 1.35 1.33 1.35 1.27 1.17 1.12 1.09 1.05 1.02 1.03 1.00 0.99 0.99 0.99 1.01 1.00 1.07 1.10 1.12 1.14 1.12 1.12 1.16 1.15 1.15
1.58 1.61 1.73 1.73 1.70 1.66 1.62 1.59 1.56 1.54 1.54 1.55 1.55 1.53 1.51 1.50 1.48 1.47 1.45 1.44 1.42 1.40 1.37 1.34 1.34 1.34 1.34 1.36 1.37 1.38 1.38 1.39 1.39 1.41 1.42 1.44 1.48 1.52 1.54 1.53 1.57 1.59 1.57 1.52 1.52 1.52 1.53 1.54 1.47 1.38 1.26 1.09 0.96 1.03 1.14 1.27 1.31 1.33 1.30 1.29 1.35 1.38 1.40 1.40 1.25 1.18 1.14 1.05 1.05 1.02 0.99 0.97 0.96 0.97 1.00 0.98 1.05 1.06 1.10 1.14 1.14 1.12 1.13 1.15 1.13
1.59 1.66 1.68 1.67 1.60 1.57 1.57 1.53 1.51 1.51 1.53 1.56 1.57 1.59 1.57 1.52 1.49 1.47 1.47 1.47 1.46 1.42 1.38 1.35 1.33 1.33 1.33 1.36 1.38 1.39 1.42 1.41 1.44 1.45 1.44 1.45 1.46 1.50 1.55 1.56 1.54 1.53 1.54 1.55 1.55 1.53 1.54 1.50 1.35 1.28 1.22 1.11 0.97 1.08 1.17 1.24 1.28 1.28 1.30 1.28 1.30 1.35 1.41 1.48 1.35 1.30 1.25 1.12 1.06 1.03 1.00 0.97 0.95 0.93 0.97 0.96 1.01 1.06 1.09 1.10 1.11 1.08 1.06 1.08 1.07
1.65 1.67 1.66 1.61 1.54 1.52 1.50 1.49 1.49 1.52 1.54 1.55 1.54 1.52 1.51 1.50 1.49 1.49 1.49 1.47 1.44 1.39 1.35 1.32 1.30 1.29 1.31 1.34 1.38 1.39 1.45 1.43 1.44 1.46 1.47 1.45 1.48 1.48 1.51 1.54 1.56 1.56 1.55 1.56 1.57 1.52 1.47 1.44 1.35 1.28 1.23 1.12 0.99 1.03 1.14 1.21 1.24 1.24 1.25 1.29 1.31 1.39 1.47 1.46 1.54 1.46 1.52 1.26 1.10 1.06 1.03 1.00 0.97 0.96 1.01 1.01 1.02 1.00 0.98 0.98 0.98 0.97 0.98 1.00 1.02
1.64 1.62 1.61 1.58 1.54 1.52 1.51 1.50 1.51 1.53 1.52 1.50 1.48 1.46 1.45 1.46 1.47 1.48 1.50 1.47 1.44 1.39 1.34 1.32 1.31 1.30 1.31 1.33 1.37 1.38 1.40 1.43 1.46 1.48 1.49 1.48 1.47 1.46 1.48 1.51 1.55 1.55 1.57 1.55 1.56 1.52 1.47 1.42 1.30 1.24 1.20 1.10 1.02 1.06 1.16 1.19 1.23 1.25 1.26 1.25 1.23 1.24 1.29 1.39 1.46 1.41 1.47 1.32 1.10 1.09 1.07 1.04 0.98 0.99 1.02 1.00 0.99 0.98 0.96 0.91 0.91 0.93 0.94 0.95 0.99
1.56 1.59 1.60 1.58 1.58 1.57 1.55 1.53 1.51 1.50 1.48 1.45 1.43 1.42 1.42 1.43 1.44 1.46 1.47 1.46 1.43 1.40 1.37 1.33 1.31 1.32 1.32 1.32 1.35 1.36 1.37 1.37 1.42 1.46 1.47 1.47 1.44 1.41 1.41 1.44 1.48 1.52 1.52 1.53 1.53 1.52 1.47 1.39 1.24 1.23 1.16 1.08 1.04 1.10 1.15 1.16 1.21 1.24 1.22 1.21 1.21 1.25 1.24 1.29 1.33 1.29 1.32 1.27 1.13 1.11 1.08 1.06 1.02 1.04 1.08 1.06 1.05 1.02 0.99 0.96 0.95 0.91 0.92 0.93 0.94
1.54 1.57 1.58 1.59 1.58 1.59 1.56 1.54 1.51 1.48 1.46 1.44 1.42 1.42 1.42 1.44 1.46 1.46 1.45 1.45 1.44 1.42 1.39 1.36 1.33 1.33 1.33 1.35 1.35 1.33 1.33 1.32 1.35 1.37 1.39 1.38 1.36 1.37 1.37 1.38 1.40 1.42 1.46 1.51 1.53 1.49 1.47 1.34 1.20 1.19 1.16 1.10 1.06 1.10 1.13 1.13 1.18 1.19 1.22 1.24 1.25 1.27 1.35 1.36 1.34 1.24 1.20 1.21 1.14 1.12 1.10 1.07 1.08 1.05 1.09 1.08 1.06 1.02 0.99 0.98 0.96 0.93 0.90 0.91 0.93
1.53 1.57 1.60 1.60 1.60 1.60 1.59 1.56 1.51 1.46 1.44 1.44 1.44 1.44 1.47 1.47 1.47 1.47 1.47 1.46 1.45 1.43 1.41 1.40 1.39 1.38 1.37 1.36 1.35 1.31 1.30 1.31 1.30 1.34 1.37 1.38 1.36 1.36 1.37 1.37 1.39 1.43 1.46 1.49 1.50 1.51 1.49 1.30 1.17 1.20 1.19 1.13 1.06 1.07 1.10 1.09 1.15 1.19 1.25 1.28 1.29 1.31 1.36 1.33 1.32 1.18 1.11 1.14 1.14 1.11 1.09 1.11 1.10 1.07 1.07 1.06 1.03 0.99 0.98 0.97 0.97 0.92 0.90 0.91 0.91
1.53 1.57 1.59 1.60 1.59 1.59 1.57 1.55 1.51 1.49 1.48 1.46 1.47 1.48 1.47 1.45 1.44 1.44 1.45 1.44 1.45 1.43 1.41 1.39 1.38 1.38 1.39 1.39 1.38 1.38 1.38 1.38 1.40 1.41 1.39 1.37 1.35 1.34 1.34 1.35 1.39 1.43 1.46 1.49 1.52 1.53 1.49 1.26 1.18 1.21 1.22 1.18 1.10 1.06 1.05 1.08 1.15 1.24 1.29 1.31 1.31 1.31 1.32 1.34 1.27 1.15 1.11 1.13 1.15 1.15 1.15 1.14 1.14 1.08 1.02 1.03 1.03 1.01 0.99 0.98 0.95 0.96 0.94 0.85 0.84
1.53 1.52 1.54 1.55 1.58 1.59 1.60 1.58 1.54 1.51 1.48 1.48 1.46 1.46 1.45 1.44 1.44 1.45 1.46 1.44 1.41 1.40 1.40 1.39 1.38 1.38 1.37 1.39 1.39 1.39 1.39 1.39 1.38 1.41 1.40 1.40 1.39 1.37 1.36 1.39 1.42 1.45 1.46 1.52 1.53 1.52 1.53 1.30 1.19 1.22 1.21 1.16 1.14 1.06 1.04 1.10 1.20 1.29 1.31 1.31 1.32 1.32 1.36 1.35 1.26 1.19 1.15 1.16 1.21 1.19 1.18 1.17 1.14 1.05 0.99 1.01 1.02 1.02 0.98 0.97 1.00 1.01 0.97 0.91 0.93
1.50 1.53 1.51 1.51 1.55 1.58 1.59 1.58 1.56 1.51 1.48 1.45 1.44 1.42 1.41 1.41 1.42 1.42 1.43 1.42 1.40 1.39 1.39 1.40 1.40 1.37 1.38 1.38 1.38 1.39 1.39 1.40 1.41 1.39 1.40 1.40 1.39 1.39 1.39 1.40 1.43 1.46 1.49 1.52 1.57 1.55 1.53 1.43 1.16 1.25 1.27 1.20 1.16 1.13 1.07 1.13 1.23 1.28 1.29 1.31 1.33 1.36 1.38 1.38 1.28 1.22 1.19 1.19 1.21 1.23 1.25 1.23 1.12 1.04 0.99 0.98 1.01 1.02 0.98 1.00 1.06 1.05 0.97 0.92 0.96
1.46 1.46 1.42 1.46 1.49 1.54 1.56 1.54 1.51 1.49 1.46 1.44 1.43 1.41 1.42 1.40 1.38 1.37 1.38 1.40 1.39 1.38 1.38 1.37 1.36 1.35 1.38 1.43 1.39 1.43 1.37 1.44 1.36 1.33 1.33 1.36 1.38 1.40 1.40 1.43 1.46 1.49 1.52 1.56 1.56 1.55 1.53 1.40 1.15 1.22 1.31 1.24 1.19 1.14 1.11 1.10 1.13 1.20 1.26 1.30 1.32 1.35 1.41 1.34 1.35 1.29 1.23 1.22 1.23 1.23 1.25 1.15 1.05 1.00 0.98 0.99 1.04 1.03 1.00 1.03 1.05 1.03 1.00 0.95 0.95
1.39 1.40 1.44 1.43 1.43 1.48 1.51 1.52 1.48 1.45 1.42 1.42 1.39 1.41 1.40 1.39 1.36 1.37 1.39 1.39 1.40 1.41 1.41 1.41 1.40 1.37 1.37 1.42 1.44 1.43 1.44 1.41 1.39 1.35 1.35 1.37 1.40 1.42 1.43 1.43 1.48 1.47 1.51 1.47 1.48 1.46 1.43 1.26 1.12 1.18 1.33 1.32 1.31 1.27 1.18 1.08 1.07 1.18 1.26 1.28 1.29 1.35 1.39 1.33 1.45 1.37 1.30 1.26 1.25 1.24 1.20 1.12 1.03 1.00 0.96 0.97 1.01 1.03 0.99 0.98 1.00 0.96 1.00 1.01 0.97
1.36 1.39 1.41 1.42 1.43 1.41 1.41 1.40 1.40 1.38 1.35 1.33 1.32 1.36 1.39 1.36 1.34 1.36 1.38 1.38 1.39 1.41 1.42 1.41 1.38 1.37 1.37 1.37 1.37 1.35 1.34 1.35 1.36 1.37 1.42 1.45 1.47 1.46 1.41 1.40 1.38 1.38 1.37 1.37 1.33 1.31 1.28 1.14 1.09 1.16 1.34 1.34 1.37 1.36 1.32 1.22 1.11 1.18 1.24 1.24 1.27 1.33 1.36 1.37 1.57 1.49 1.33 1.28 1.24 1.22 1.20 1.14 1.05 0.99 0.95 0.97 1.00 1.02 0.99 0.96 0.95 0.98 0.95 0.97 0.99
1.26 1.27 1.28 1.30 1.33 1.33 1.32 1.31 1.30 1.30 1.29 1.25 1.27 1.32 1.36 1.31 1.36 1.39 1.40 1.42 1.42 1.41 1.39 1.42 1.41 1.41 1.38 1.42 1.41 1.38 1.35 1.35 1.38 1.41 1.45 1.46 1.47 1.45 1.43 1.40 1.40 1.40 1.40 1.40 1.34 1.26 1.19 1.09 1.07 1.18 1.32 1.36 1.37 1.35 1.31 1.28 1.18 1.12 1.16 1.23 1.28 1.30 1.33 1.37 1.39 1.38 1.27 1.22 1.17 1.14 1.19 1.20 1.11 1.02 0.96 0.96 1.00 1.00 0.99 0.97 0.93 0.98 0.98 0.93 0.99
1.14 1.15 1.19 1.20 1.20 1.21 1.23 1.27 1.26 1.26 1.27 1.27 1.28 1.30 1.31 1.33 1.35 1.40 1.41 1.45 1.47 1.40 1.39 1.39 1.45 1.44 1.45 1.45 1.45 1.45 1.42 1.40 1.41 1.43 1.44 1.45 1.46 1.47 1.45 1.44 1.42 1.43 1.38 1.38 1.34 1.23 1.14 1.05 1.05 1.21 1.30 1.35 1.36 1.31 1.28 1.24 1.22 1.15 1.18 1.28 1.29 1.25 1.28 1.33 1.32 1.32 1.21 1.16 1.11 1.13 1.21 1.21 1.17 1.08 1.00 0.96 0.96 0.98 0.96 0.98 0.94 0.94 0.97 0.93 0.98
1.08 1.12 1.14 1.18 1.18 1.19 1.21 1.20 1.23 1.27 1.27 1.26 1.26 1.27 1.29 1.32 1.31 1.35 1.40 1.40 1.43 1.45 1.43 1.41 1.43 1.47 1.46 1.46 1.45 1.48 1.47 1.44 1.47 1.48 1.50 1.50 1.48 1.44 1.43 1.45 1.46 1.42 1.39 1.35 1.35 1.26 1.09 1.07 1.09 1.19 1.27 1.31 1.32 1.27 1.25 1.24 1.21 1.19 1.15 1.18 1.22 1.25 1.27 1.28 1.28 1.32 1.27 1.23 1.14 1.15 1.22 1.21 1.21 1.13 1.05 0.97 0.93 0.95 0.93 0.94 0.97 0.96 0.94 0.95 0.93
1.10 1.14 1.12 1.20 1.21 1.17 1.18 1.21 1.22 1.22 1.22 1.22 1.24 1.27 1.29 1.29 1.30 1.30 1.33 1.35 1.36 1.38 1.39 1.37 1.35 1.42 1.44 1.42 1.43 1.46 1.45 1.46 1.47 1.51 1.51 1.48 1.45 1.44 1.45 1.46 1.47 1.43 1.40 1.39 1.38 1.38 1.21 1.14 1.18 1.18 1.23 1.28 1.28 1.24 1.19 1.20 1.22 1.18 1.15 1.16 1.21 1.26 1.30 1.30 1.26 1.30 1.33 1.35 1.27 1.25 1.26 1.24 1.25 1.20 1.12 1.02 0.94 0.94 0.95 0.95 0.94 0.96 0.95 0.95 0.97
1.12 1.14 1.16 1.17 1.21 1.21 1.21 1.21 1.21 1.20 1.19 1.19 1.21 1.22 1.22 1.24 1.24 1.26 1.26 1.29 1.30 1.31 1.31 1.32 1.31 1.31 1.36 1.39 1.42 1.43 1.42 1.43 1.46 1.48 1.46 1.46 1.45 1.43 1.45 1.46 1.45 1.43 1.44 1.40 1.42 1.39 1.37 1.22 1.17 1.18 1.21 1.25 1.28 1.24 1.22 1.14 1.12 1.12 1.07 1.07 1.11 1.18 1.24 1.27 1.28 1.31 1.34 1.35 1.36 1.36 1.35 1.32 1.32 1.30 1.22 1.08 0.95 0.94 0.97 0.96 0.94 0.90 0.94 0.94 0.94
1.16 1.09 1.10 1.14 1.18 1.20 1.21 1.21 1.18 1.15 1.16 1.18 1.15 1.16 1.15 1.11 1.13 1.17 1.19 1.22 1.22 1.21 1.24 1.26 1.26 1.26 1.28 1.32 1.37 1.38 1.39 1.41 1.41 1.43 1.47 1.48 1.44 1.44 1.45 1.45 1.45 1.43 1.47 1.45 1.46 1.46 1.43 1.38 1.23 1.20 1.25 1.31 1.33 1.31 1.33 1.29 1.16 1.09 1.05 1.06 1.06 1.08 1.16 1.21 1.23 1.27 1.31 1.34 1.37 1.42 1.44 1.43 1.38 1.32 1.27 1.19 1.01 0.94 0.95 0.96 0.97 0.89 0.87 0.92 0.93
1.05 1.04 1.09 1.12 1.16 1.17 1.18 1.19 1.14 1.14 1.14 1.18 1.17 1.14 1.10 1.10 1.10 1.10 1.09 1.11 1.16 1.14 1.15 1.17 1.16 1.14 1.15 1.22 1.22 1.28 1.33 1.34 1.37 1.40 1.39 1.41 1.39 1.44 1.43 1.43 1.42 1.44 1.47 1.44 1.43 1.46 1.45 1.42 1.39 1.29 1.24 1.27 1.33 1.36 1.40 1.40 1.33 1.21 1.05 1.08 1.13 1.12 1.15 1.17 1.18 1.24 1.28 1.31 1.33 1.38 1.42 1.45 1.42 1.36 1.31 1.23 1.09 0.99 0.96 0.97 0.97 0.94 0.90 0.91 0.94
1.06 1.06 1.10 1.13 1.15 1.17 1.22 1.23 1.22 1.23 1.21 1.25 1.24 1.21 1.18 1.16 1.15 1.16 1.16 1.16 1.18 1.16 1.14 1.08 1.02 0.99 1.04 1.08 1.14 1.20 1.22 1.25 1.28 1.31 1.31 1.34 1.33 1.37 1.39 1.38 1.39 1.42 1.44 1.40 1.35 1.38 1.41 1.41 1.41 1.41 1.30 1.24 1.29 1.35 1.40 1.42 1.41 1.37 1.21 1.11 1.14 1.17 1.18 1.18 1.20 1.23 1.28 1.31 1.36 1.40 1.42 1.45 1.44 1.41 1.34 1.22 1.13 1.08 1.01 0.97 0.97 0.97 0.94 0.91 0.94
1.05 1.09 1.13 1.15 1.15 1.19 1.21 1.20 1.23 1.25 1.27 1.27 1.23 1.26 1.27 1.25 1.22 1.20 1.18 1.24 1.21 1.12 1.05 1.02 0.94 0.89 0.90 0.93 0.97 0.98 1.08 1.16 1.19 1.21 1.26 1.27 1.30 1.31 1.33 1.34 1.38 1.39 1.41 1.38 1.38 1.32 1.32 1.35 1.37 1.38 1.38 1.27 1.25 1.30 1.37 1.41 1.43 1.42 1.37 1.24 1.19 1.21 1.24 1.25 1.27 1.29 1.33 1.37 1.41 1.44 1.45 1.44 1.43 1.42 1.34 1.24 1.17 1.11 1.06 1.03 0.99 0.98 0.97 0.92 0.93
1.12 1.17 1.17 1.15 1.18 1.21 1.22 1.24 1.25 1.25 1.28 1.27 1.23 1.24 1.24 1.23 1.23 1.23 1.26 1.29 1.25 1.23 1.11 0.99 0.97 0.91 0.85 0.84 0.90 0.95 0.95 0.98 1.05 1.14 1.15 1.21 1.25 1.27 1.31 1.31 1.33 1.38 1.39 1.35 1.37 1.37 1.32 1.29 1.30 1.32 1.35 1.33 1.31 1.34 1.36 1.38 1.42 1.40 1.39 1.38 1.35 1.32 1.33 1.31 1.31 1.33 1.36 1.39 1.41 1.43 1.45 1.45 1.44 1.40 1.34 1.27 1.22 1.16 1.12 1.09 1.06 1.02 0.98 1.00 0.94
1.20 1.17 1.20 1.21 1.24 1.24 1.23 1.27 1.27 1.29 1.29 1.24 1.25 1.23 1.24 1.21 1.21 1.23 1.26 1.24 1.28 1.28 1.24 1.09 1.00 0.96 0.92 0.89 0.86 0.89 0.94 1.00 1.01 1.01 1.03 1.08 1.16 1.19 1.21 1.27 1.28 1.29 1.34 1.37 1.42 1.39 1.37 1.34 1.32 1.29 1.28 1.28 1.28 1.31 1.31 1.32 1.40 1.44 1.42 1.41 1.41 1.42 1.41 1.39 1.34 1.35 1.37 1.39 1.43 1.45 1.44 1.44 1.43 1.42 1.39 1.34 1.30 1.23 1.18 1.12 1.11 1.07 1.01 0.99 0.97
1.21 1.18 1.21 1.26 1.25 1.27 1.29 1.32 1.32 1.31 1.27 1.24 1.25 1.23 1.23 1.24 1.24 1.24 1.24 1.23 1.23 1.24 1.25 1.24 1.21 1.10 1.04 0.97 0.95 0.90 0.86 0.91 0.98 1.02 1.04 1.06 1.04 1.07 1.13 1.16 1.16 1.21 1.25 1.28 1.30 1.31 1.31 1.33 1.35 1.33 1.32 1.31 1.30 1.30 1.31 1.31 1.35 1.40 1.46 1.40 1.43 1.48 1.42 1.42 1.37 1.37 1.38 1.39 1.41 1.44 1.45 1.45 1.46 1.44 1.43 1.39 1.36 1.32 1.30 1.21 1.11 1.09 1.05 0.99 0.99
1.21 1.19 1.17 1.22 1.24 1.28 1.30 1.30 1.34 1.33 1.31 1.28 1.26 1.26 1.27 1.26 1.28 1.28 1.29 1.28 1.24 1.23 1.22 1.27 1.33 1.30 1.23 1.14 1.07 0.99 0.96 0.85 0.84 0.91 0.99 1.03 1.04 1.07 1.10 1.12 1.15 1.17 1.20 1.23 1.23 1.23 1.27 1.30 1.29 1.31 1.28 1.28 1.28 1.28 1.32 1.31 1.29 1.32 1.37 1.38 1.41 1.42 1.44 1.44 1.41 1.39 1.39 1.39 1.40 1.43 1.45 1.46 1.47 1.47 1.46 1.45 1.43 1.39 1.35 1.31 1.20 1.13 1.09 1.03 1.00
1.09 1.13 1.15 1.17 1.26 1.31 1.34 1.33 1.31 1.29 1.29 1.28 1.29 1.24 1.25 1.26 1.27 1.26 1.27 1.25 1.21 1.21 1.23 1.25 1.30 1.33 1.36 1.32 1.23 1.17 1.07 1.01 0.92 0.86 0.89 0.91 0.95 0.97 1.00 1.02 1.07 1.13 1.14 1.18 1.18 1.20 1.18 1.18 1.20 1.19 1.17 1.17 1.18 1.21 1.21 1.20 1.24 1.26 1.27 1.30 1.34 1.38 1.38 1.36 1.38 1.39 1.41 1.39 1.38 1.40 1.43 1.47 1.49 1.50 1.49 1.49 1.50 1.48 1.42 1.36 1.30 1.22 1.14 1.07 1.02
1.07 1.07 1.10 1.17 1.23 1.30 1.34 1.29 1.33 1.29 1.28 1.25 1.26 1.24 1.23 1.24 1.22 1.22 1.23 1.23 1.23 1.22 1.23 1.25 1.27 1.31 1.35 1.35 1.34 1.32 1.27 1.13 1.02 0.94 0.90 0.88 0.86 0.86 0.89 0.90 0.94 0.98 1.02 1.08 1.10 1.11 1.09 1.11 1.17 1.13 1.17 1.21 1.23 1.23 1.21 1.19 1.19 1.18 1.20 1.25 1.26 1.32 1.27 1.28 1.31 1.32 1.36 1.38 1.38 1.38 1.42 1.45 1.49 1.51 1.50 1.49 1.51 1.53 1.50 1.45 1.38 1.32 1.24 1.14 1.06
1.13 1.15 1.18 1.19 1.18 1.23 1.25 1.25 1.28 1.26 1.26 1.24 1.26 1.27 1.25 1.22 1.23 1.21 1.18 1.19 1.20 1.19 1.20 1.22 1.24 1.26 1.29 1.30 1.33 1.30 1.26 1.21 1.09 0.99 0.95 0.92 0.93 0.91 0.90 0.91 0.92 0.95 0.98 1.02 1.03 1.00 1.02 1.04 1.10 1.11 1.06 1.09 1.14 1.12 1.17 1.15 1.17 1.16 1.19 1.21 1.25 1.29 1.29 1.30 1.29 1.31 1.34 1.36 1.34 1.34 1.37 1.41 1.46 1.50 1.50 1.48 1.48 1.51 1.49 1.48 1.46 1.42 1.36 1.30 1.20
1.18 1.19 1.20 1.22 1.21 1.24 1.24 1.22 1.22 1.23 1.23 1.21 1.23 1.23 1.25 1.22 1.19 1.17 1.15 1.14 1.14 1.15 1.17 1.18 1.21 1.22 1.26 1.26 1.30 1.30 1.27 1.24 1.21 1.11 1.02 0.99 0.94 0.93 0.97 0.96 0.94 0.95 0.94 0.98 0.99 1.01 1.00 0.99 1.02 1.07 1.06 1.03 1.04 1.02 1.01 1.04 1.06 1.11 1.15 1.18 1.21 1.24 1.24 1.29 1.31 1.35 1.35 1.31 1.30 1.31 1.34 1.35 1.41 1.46 1.47 1.46 1.47 1.49 1.49 1.47 1.48 1.48 1.45 1.40 1.33
1.14 1.17 1.23 1.23 1.19 1.20 1.21 1.22 1.21 1.24 1.24 1.22 1.19 1.18 1.17 1.16 1.13 1.11 1.08 1.06 1.09 1.13 1.16 1.18 1.18 1.21 1.23 1.22 1.28 1.30 1.27 1.26 1.23 1.22 1.12 1.07 1.04 0.96 0.95 0.94 0.93 0.93 0.93 0.94 0.94 0.97 1.00 1.03 0.99 1.03 1.05 1.01 0.98 0.98 0.96 0.96 0.97 1.01 1.07 1.11 1.15 1.17 1.19 1.23 1.28 1.32 1.29 1.26 1.28 1.28 1.32 1.35 1.39 1.41 1.44 1.46 1.46 1.47 1.47 1.48 1.48 1.47 1.47 1.46 1.40
1.10 1.11 1.13 1.13 1.12 1.13 1.15 1.15 1.15 1.15 1.16 1.18 1.17 1.16 1.15 1.11 1.08 1.05 1.03 1.03 1.04 1.06 1.10 1.12 1.14 1.18 1.19 1.24 1.27 1.27 1.26 1.25 1.25 1.27 1.25 1.19 1.16 1.10 1.04 0.97 0.94 0.92 0.92 0.91 0.89 0.89 0.91 0.95 0.94 0.92 0.95 0.93 0.91 0.94 0.97 0.99 0.97 0.96 0.98 1.03 1.08 1.11 1.16 1.19 1.23 1.26 1.27 1.25 1.26 1.29 1.32 1.32 1.33 1.36 1.41 1.46 1.48 1.50 1.48 1.48 1.50 1.48 1.46 1.45 1.46
1.08 1.09 1.07 1.05 1.02 1.02 1.02 1.02 1.03 1.05 1.07 1.05 1.04 1.03 1.04 1.00 0.96 0.97 0.94 0.97 1.00 1.01 1.05 1.06 1.09 1.11 1.17 1.20 1.22 1.23 1.23 1.24 1.26 1.27 1.26 1.23 1.19 1.15 1.16 1.16 1.10 1.01 0.94 0.91 0.91 0.89 0.85 0.83 0.82 0.84 0.84 0.84 0.85 0.86 0.91 0.91 0.91 0.89 0.87 0.91 0.96 1.01 1.06 1.12 1.18 1.22 1.26 1.27 1.27 1.30 1.29 1.33 1.33 1.35 1.37 1.42 1.45 1.49 1.54 1.56 1.61 1.49 1.46 1.45 1.46
1.02 1.01 0.98 0.96 0.95 0.93 0.91 0.89 0.96 0.98 0.97 0.94 0.92 0.90 0.87 0.90 0.92 0.90 0.88 0.93 0.94 0.98 0.98 1.02 1.05 1.08 1.10 1.11 1.12 1.15 1.18 1.18 1.21 1.21 1.20 1.22 1.21 1.21 1.20 1.22 1.22 1.17 1.09 1.00 0.98 0.96 0.96 0.94 0.90 0.88 0.82 0.77 0.73 0.73 0.80 0.83 0.76 0.73 0.79 0.77 0.76 0.83 0.93 1.03 1.07 1.11 1.14 1.19 1.24 1.25 1.29 1.30 1.33 1.31 1.35 1.39 1.39 1.40 1.43 1.47 1.56 1.50 1.53 1.48 1.43
0.90 0.90 0.89 0.88 0.88 0.89 0.86 0.88 0.91 0.92 0.92 0.91 0.90 0.91 0.93 0.91 0.89 0.89 0.90 0.93 0.92 0.91 0.91 0.97 1.01 1.06 1.08 1.08 1.08 1.09 1.09 1.10 1.10 1.10 1.12 1.17 1.18 1.19 1.21 1.22 1.23 1.22 1.20 1.18 1.16 1.09 1.01 0.97 0.96 0.88 0.89 0.76 0.69 0.73 0.74 0.73 0.64 0.63 0.61 0.62 0.63 0.69 0.83 0.92 0.96 1.06 1.11 1.16 1.22 1.23 1.25 1.20 1.20 1.29 1.33 1.31 1.30 1.38 1.40 1.42 1.40 1.36 1.43 1.43 1.40
0.85 0.84 0.86 0.86 0.86 0.86 0.85 0.85 0.87 0.86 0.85 0.87 0.86 0.84 0.89 0.93 0.93 0.91 0.90 0.91 0.98 0.97 0.97 0.99 1.01 1.00 1.02 1.05 1.07 1.08 1.08 1.07 1.07 1.07 1.06 1.09 1.12 1.14 1.15 1.19 1.21 1.22 1.19 1.18 1.18 1.15 1.13 1.05 0.99 0.93 0.88 0.90 0.84 0.85 0.79 0.79 0.66 0.73 0.73 0.61 0.53 0.46 0.62 0.71 0.88 0.93 0.97 1.06 1.15 1.19 1.23 1.22 1.24 1.28 1.30 1.30 1.28 1.29 1.33 1.38 1.40 1.40 1.41 1.44 1.42
0.83 0.83 0.83 0.81 0.83 0.83 0.84 0.83 0.81 0.81 0.79 0.79 0.80 0.82 0.84 0.86 0.89 0.91 0.93 0.92 0.88 0.93 0.94 0.96 0.96 0.96 0.94 1.00 1.02 1.04 1.06 1.07 1.08 1.08 1.08 1.07 1.06 1.05 1.06 1.07 1.11 1.17 1.17 1.14 1.15 1.14 1.15 1.15 1.12 1.06 1.01 0.86 0.88 0.87 0.94 0.89 0.82 0.73 0.57 0.56 0.54 0.50 0.37 0.44 0.56 0.77 0.91 1.02 1.07 1.13 1.14 1.18 1.23 1.26 1.30 1.27 1.29 1.33 1.38 1.41 1.40 1.44 1.48 1.49 1.51
0.81 0.81 0.78 0.77 0.78 0.78 0.79 0.80 0.78 0.76 0.75 0.74 0.73 0.74 0.73 0.71 0.72 0.74 0.78 0.77 0.78 0.76 0.75 0.75 0.80 0.85 0.89 0.91 0.94 1.00 1.00 1.01 1.04 1.07 1.07 1.06 1.06 1.06 1.05 1.05 1.05 1.08 1.11 1.11 1.11 1.13 1.16 1.19 1.18 1.12 1.09 1.00 0.89 0.92 0.97 0.99 0.92 0.91 0.73 0.61 0.57 0.49 0.46 0.51 0.53 0.48 0.74 0.82 0.92 1.07 1.10 1.14 1.19 1.23 1.23 1.24 1.31 1.33 1.35 1.39 1.41 1.44 1.47 1.50 1.52
0.77 0.79 0.78 0.74 0.73 0.70 0.71 0.71 0.68 0.67 0.66 0.67 0.67 0.65 0.62 0.59 0.56 0.54 0.53 0.54 0.52 0.53 0.52 0.56 0.62 0.66 0.69 0.80 0.85 0.91 0.94 0.96 0.98 1.01 1.03 1.06 1.05 1.06 1.05 1.03 1.02 1.04 1.05 1.07 1.08 1.10 1.12 1.15 1.18 1.16 1.12 1.14 1.06 0.95 0.92 1.05 1.03 0.95 0.89 0.81 0.72 0.56 0.53 0.62 0.56 0.37 0.61 0.70 0.79 0.99 1.04 1.10 1.16 1.14 1.17 1.21 1.23 1.24 1.28 1.31 1.36 1.34 1.36 1.38 1.39
0.75 0.77 0.75 0.71 0.70 0.69 0.67 0.65 0.62 0.58 0.58 0.57 0.57 0.55 0.53 0.53 0.50 0.50 0.51 0.50 0.47 0.48 0.52 0.53 0.56 0.61 0.63 0.65 0.69 0.76 0.81 0.83 0.87 0.92 0.92 0.96 0.99 1.02 1.03 1.03 1.03 1.03 1.03 1.01 0.98 1.00 1.07 1.13 1.19 1.17 1.15 1.15 1.14 1.03 0.96 0.96 1.02 0.99 0.95 0.88 0.82 0.82 0.79 0.68 0.57 0.58 0.42 0.52 0.62 0.77 0.87 0.93 1.03 1.09 1.11 1.14 1.15 1.15 1.17 1.18 1.22 1.25 1.24 1.26 1.27
0.75 0.75 0.73 0.70 0.67 0.66 0.66 0.64 0.64 0.61 0.58 0.56 0.54 0.53 0.48 0.48 0.48 0.49 0.50 0.49 0.48 0.48 0.51 0.51 0.52 0.54 0.54 0.56 0.59 0.62 0.67 0.69 0.73 0.74 0.77 0.81 0.84 0.86 0.88 0.89 0.90 0.95 0.99 1.00 1.00 1.02 1.02 1.06 1.12 1.19 1.20 1.19 1.14 1.08 1.06 1.07 0.98 0.94 1.00 0.91 0.81 0.78 0.81 0.81 0.78 0.67 0.59 0.47 0.43 0.64 0.72 0.76 0.86 0.89 0.94 1.05 1.10 1.11 1.11 1.11 1.10 1.09 1.10 1.13 1.16
0.69 0.68 0.69 0.68 0.67 0.65 0.64 0.63 0.60 0.60 0.61 0.60 0.56 0.56 0.53 0.50 0.48 0.48 0.46 0.51 0.55 0.53 0.56 0.56 0.53 0.51 0.48 0.53 0.55 0.58 0.60 0.61 0.61 0.62 0.67 0.70 0.71 0.72 0.73 0.75 0.77 0.79 0.85 0.89 0.93 0.98 1.01 1.02 1.02 1.06 1.12 1.17 1.20 1.20 1.13 1.09 1.08 1.05 1.03 0.99 0.95 0.80 0.75 0.81 0.80 0.80 0.66 0.57 0.52 0.51 0.52 0.67 0.71 0.71 0.77 0.91 1.02 1.07 1.10 1.10 1.10 1.07 1.06 1.08 1.10
0.68 0.68 0.67 0.67 0.65 0.62 0.59 0.58 0.57 0.58 0.58 0.59 0.60 0.57 0.56 0.54 0.48 0.48 0.47 0.46 0.51 0.53 0.54 0.56 0.55 0.53 0.48 0.48 0.55 0.58 0.59 0.58 0.57 0.56 0.57 0.60 0.61 0.64 0.65 0.66 0.70 0.73 0.76 0.77 0.80 0.83 0.88 0.94 1.00 1.03 1.06 1.06 1.13 1.17 1.17 1.17 1.17 1.16 1.10 1.11 1.04 0.97 0.82 0.73 0.78 0.77 0.74 0.71 0.57 0.55 0.59 0.57 0.55 0.62 0.75 0.82 0.91 0.97 1.03 1.06 1.05 1.06 1.07 1.07 1.06
0.67 0.67 0.65 0.66 0.65 0.62 0.58 0.54 0.55 0.60 0.60 0.56 0.57 0.58 0.58 0.56 0.52 0.49 0.49 0.48 0.47 0.49 0.48 0.54 0.56 0.51 0.48 0.47 0.50 0.59 0.62 0.60 0.59 0.56 0.56 0.57 0.56 0.55 0.55 0.58 0.63 0.67 0.69 0.70 0.69 0.73 0.79 0.83 0.88 0.93 0.97 1.00 1.03 1.07 1.11 1.15 1.17 1.17 1.13 1.08 1.07 1.05 0.98 0.85 0.69 0.71 0.75 0.70 0.68 0.66 0.66 0.68 0.64 0.61 0.70 0.80 0.87 0.95 1.00 1.03 1.02 1.04 1.06 1.04 1.03
Wind_Speed
11 11 11 10 9 8 8 8 7 6 6 5 5 4 4 4 4 4 5 5 5 4 4 4 4 4 4 4 4 4 4 4 4 4 5 5 5 6 6 6 6 6 7 7 7 7 7 6 6 7 7 7 8 8 8 8 8 7 7 7 7 7 6 6 6 6 6 6 6 6 5 6 5 5 5 5 5 5 5 5 5 5 4 4 4
12 12 11 10 9 8 8 7 7 6 5 5 5 4 4 4 4 4 4 4 4 5 5 4 4 4 4 4 4 4 4 4 4 5 5 5 5 6 6 6 6 7 7 7 7 7 7 7 7 8 8 8 9 9 8 8 7 7 6 6 6 6 6 6 5 5 6 6 6 6 6 6 6 6 5 5 5 5 5 5 5 5 5 4 4
12 11 9 8 7 7 7 7 6 6 5 5 4 4 4 4 4 4 5 5 5 5 5 5 5 5 5 5 5 4 4 5 5 5 5 6 6 6 6 6 7 7 7 7 7 8 8 8 8 8 9 9 9 9 8 7 7 6 6 5 5 5 5 5 5 5 5 5 5 5 6 6 6 6 6 5 5 5 5 5 5 5 5 5 4
9 8 6 6 6 6 6 6 5 5 5 4 4 4 4 4 4 5 5 5 5 5 5 5 5 5 5 5 5 5 5 5 5 5 6 6 6 6 6 7 7 7 7 7 8 8 8 8 8 8 8 8 8 8 7 7 7 6 6 6 5 5 6 5 5 5 5 5 5 5 5 5 6 6 5 5 4 4 4 5 5 5 5 5 5
5 5 5 5 6 6 5 4 4 4 4 4 4 4 4 4 4 4 5 5 5 6 6 6 6 6 6 6 6 6 6 6 6 6 6 7 7 7 7 7 7 7 7 8 8 8 8 8 8 8 8 8 7 7 7 7 7 6 6 6 6 6 6 6 5 5 5 5 4 4 4 5 5 5 5 5 4 4 4 4 5 5 5 5 5
3 3 5 5 5 6 5 4 3 3 4 4 4 4 4 4 4 5 5 5 6 6 6 6 6 7 7 7 7 7 7 7 7 7 7 7 7 8 8 8 8 8 8 8 8 8 8 8 7 8 8 7 7 7 6 6 6 6 6 6 6 6 7 6 5 5 4 4 4 4 4 4 5 5 5 4 4 4 4 4 4 5 5 5 5
2 2 4 5 5 5 5 4 3 3 4 4 4 4 4 4 4 5 5 5 5 6 6 6 7 7 8 8 8 8 7 7 7 7 7 8 8 8 8 8 8 8 8 8 8 8 8 8 8 8 8 7 7 6 6 6 6 6 6 6 6 6 7 7 5 4 4 4 4 4 4 4 4 4 4 4 4 4 4 4 4 5 5 5 5
2 3 4 4 4 4 4 3 3 3 3 4 4 4 4 5 5 5 5 5 6 6 6 7 7 8 8 8 8 8 8 8 8 8 8 8 8 9 8 8 8 8 8 8 8 8 8 8 8 8 8 7 7 7 6 6 6 6 6 6 6 6 6 6 5 4 4 4 4 4 4 4 4 4 4 4 4 4 5 5 5 5 5 5 5
3 3 3 3 3 3 3 3 3 3 4 4 4 5 4 5 5 5 6 6 6 7 7 7 7 8 8 9 9 9 9 9 9 9 9 9 9 9 9 9 9 9 9 9 9 9 9 9 9 9 8 8 8 7 7 7 6 7 6 6 6 6 6 6 6 5 5 5 5 5 5 4 4 4 4 5 5 5 5 5 5 5 5 5 5
3 4 4 3 3 3 4 4 4 4 4 5 5 4 5 5 5 6 6 7 7 8 8 8 8 8 8 9 9 9 10 10 10 10 10 10 10 10 10 10 10 10 10 10 10 10 10 9 9 9 9 9 8 8 8 7 7 7 7 6 6 6 6 7 7 7 6 6 6 5 5 4 4 4 4 5 5 5 5 5 6 5 5 5 5
4 4 4 4 3 4 4 4 4 4 4 4 5 5 5 5 6 6 7 7 8 8 8 8 8 8 8 9 9 9 10 10 10 10 9 10 10 10 10 10 10 10 11 11 11 10 10 10 10 10 10 10 9 9 9 8 8 8 7 7 6 6 6 6 7 8 8 7 7 6 5 4 4 4 4 4 4 4 5 5 5 6 6 5 5
4 4 4 4 4 4 4 4 4 3 4 4 4 5 5 6 6 6 6 7 7 7 7 7 7 7 8 8 9 9 9 9 9 9 9 9 10 10 10 10 10 11 11 11 11 10 10 10 10 10 10 10 9 10 9 9 9 8 8 7 7 6 6 7 7 9 9 8 8 7 6 4 4 4 4 4 4 4 4 4 5 5 6 5 5
5 4 4 4 3 3 3 3 3 3 3 3 4 4 5 5 5 5 5 6 6 6 7 7 7 7 7 8 8 9 9 9 9 9 9 9 10 10 10 10 11 11 11 11 10 10 10 10 10 9 9 9 9 9 10 10 9 9 8 8 7 7 7 7 8 9 9 9 8 7 6 5 5 5 4 4 4 4 4 4 4 5 5 5 5
4 4 3 3 2 2 2 3 2 2 2 3 4 4 4 4 4 5 5 6 6 6 7 7 7 7 7 7 8 8 8 8 9 9 9 9 9 10 10 10 11 10 10 10 10 10 10 9 9 9 9 9 9 9 10 10 10 9 9 8 8 7 7 7 8 9 8 8 8 7 6 5 5 4 4 4 4 4 4 4 4 4 5 5 5
2 2 2 2 2 2 3 3 3 3 3 3 3 4 4 4 5 5 6 6 7 7 7 7 7 6 7 7 7 7 8 8 8 8 9 9 9 9 9 9 10 10 10 10 10 10 10 9 9 9 9 9 8 9 10 10 10 10 9 9 8 8 7 7 8 8 8 8 8 7 6 5 5 4 4 4 4 4 4 4 4 4 4 5 5
2 1 1 2 2 3 2 2 3 3 3 3 3 4 4 4 5 5 6 6 6 7 7 6 6 6 6 7 7 7 7 7 7 7 7 7 8 8 8 8 9 9 9 9 9 10 10 9 10 10 9 9 9 9 10 10 10 10 10 9 9 8 7 7 7 8 8 9 9 8 7 6 5 5 5 5 5 5 4 4 4 4 4 4 4
1 1 1 1 0 1 0 1 0 1 1 2 2 3 4 4 4 4 5 5 5 6 6 6 6 6 6 6 6 6 6 6 6 6 6 6 7 7 7 8 8 8 8 9 9 9 10 10 10 10 10 10 9 9 10 10 10 10 10 10 9 8 7 6 7 8 9 9 9 8 7 6 6 5 5 5 6 5 5 5 5 4 4 4 4
1 1 1 1 1 2 1 1 1 1 0 1 2 3 4 4 4 4 4 4 4 5 5 5 5 5 5 5 5 5 5 5 6 6 6 6 6 7 7 7 8 8 8 8 9 9 9 10 10 10 10 10 10 9 10 10 11 10 10 10 9 8 7 6 7 9 10 10 10 9 8 7 6 6 6 6 6 6 5 5 5 4 4 4 4
1 1 1 2 1 2 1 1 1 1 1 2 2 3 3 3 3 4 4 4 4 4 4 4 4 4 4 5 5 5 5 5 5 5 6 6 6 7 7 7 7 8 8 8 8 9 9 10 10 10 10 10 9 9 9 10 10 11 10 10 10 9 7 7 7 8 10 11 11 10 9 8 7 6 6 7 7 6 6 6 5 4 4 5 4
2 1 1 1 1 1 1 1 1 1 2 2 3 3 3 3 4 4 4 4 3 3 3 3 4 4 4 4 4 5 5 5 5 5 6 6 6 6 7 7 7 7 7 7 8 8 9 9 9 9 9 9 9 9 9 9 10 10 11 11 11 10 8 8 8 8 10 11 11 11 10 9 8 7 7 7 7 7 7 6 6 5 5 5 5
2 2 1 1 1 1 1 1 1 2 2 3 3 3 4 3 4 4 4 4 3 3 3 3 3 3 3 3 4 4 4 5 5 6 6 6 6 6 6 7 7 7 7 7 7 7 8 8 9 9 9 9 9 9 9 9 10 10 11 12 11 11 9 9 9 9 9 11 12 12 11 11 9 8 8 8 8 8 8 7 7 7 6 6 6
3 3 2 2 2 2 2 2 2 2 3 3 3 3 3 3 3 4 4 4 3 3 3 3 3 3 2 3 3 3 4 4 5 5 5 5 6 6 6 6 7 7 7 6 6 7 7 8 9 9 9 9 9 9 9 9 10 10 11 12 12 11 10 9 10 10 10 11 12 13 12 12 11 10 9 9 9 9 9 8 8 8 7 7 7
4 4 3 3 3 3 3 3 3 3 3 3 3 3 3 3 3 3 4 3 3 3 3 3 3 3 2 2 3 3 3 3 3 4 4 5 5 5 6 6 6 6 6 6 6 6 6 7 8 8 9 9 8 8 8 9 9 10 10 11 11 11 11 10 11 11 11 11 13 13 13 13 12 11 11 10 10 10 10 9 9 8 8 8 8
5 5 4 4 3 3 3 3 3 3 3 3 3 3 3 3 3 3 4 3 3 3 3 3 3 3 3 3 2 2 2 2 2 3 3 3 4 4 5 5 5 5 5 6 6 5 6 6 7 8 8 8 8 8 8 9 9 10 10 10 11 11 11 11 11 12 12 11 13 14 14 14 13 12 12 12 11 11 11 10 10 10 9 9 9
6 5 5 5 4 4 4 4 4 4 4 4 3 3 3 3 3 3 3 3 3 3 3 3 3 3 3 3 2 2 2 2 2 2 3 3 3 4 4 4 5 5 5 6 6 6 6 6 7 8 8 8 8 8 9 9 9 10 10 10 11 12 11 11 12 12 12 12 13 14 15 15 15 14 13 13 13 12 12 11 11 11 11 10 10
7 6 6 6 6 5 5 5 5 5 5 4 4 4 3 3 3 3 3 3 3 3 3 3 3 3 3 3 3 2 2 3 3 3 3 3 3 3 4 4 4 4 5 5 6 6 6 7 7 8 8 9 9 9 9 9 9 10 10 10 11 11 12 12 12 12 13 13 13 14 15 15 15 15 14 14 14 14 13 13 12 12 12 12 12
8 8 7 7 6 6 6 6 5 5 5 5 4 4 4 4 3 3 3 3 3 3 3 3 3 3 3 3 3 3 3 3 3 3 3 3 3 4 4 4 4 4 4 5 5 6 6 7 7 8 8 9 9 9 9 9 9 10 10 11 11 11 11 12 12 12 13 13 13 14 14 15 16 16 16 16 15 15 14 14 14 14 13 13 13
9 8 8 7 7 7 6 6 6 5 5 5 4 4 4 4 4 4 4 3 3 3 3 4 4 3 3 3 3 3 3 3 3 3 3 3 3 4 4 4 4 4 4 4 5 5 6 7 7 8 8 9 9 9 10 10 10 10 10 11 11 10 10 11 11 12 13 13 14 14 14 15 16 16 16 16 16 16 15 15 15 15 15 15 14
9 8 8 7 7 7 6 6 6 5 5 5 5 5 5 5 5 4 4 4 4 4 4 5 5 4 4 4 4 3 3 3 4 4 4 4 4 4 4 4 5 5 5 5 5 5 6 7 7 8 8 9 9 9 10 10 10 10 10 11 10 10 10 11 11 12 12 13 14 15 15 15 16 16 16 16 17 17 16 16 16 16 17 16 15
8 8 8 8 7 7 7 6 6 6 6 5 5 5 5 5 5 5 5 5 4 4 5 4 5 5 4 4 4 4 4 4 4 4 4 5 5 5 5 5 5 6 6 6 6 6 7 7 7 8 9 9 9 10 10 10 10 10 11 11 11 11 11 11 11 12 12 13 14 15 15 16 16 16 16 16 17 17 17 17 17 17 18 18 17
8 8 8 8 7 7 7 7 7 6 6 6 6 6 5 6 6 5 5 5 5 5 5 5 5 5 5 5 5 4 4 4 4 4 5 5 6 5 6 6 6 7 7 7 7 7 8 8 8 8 9 9 10 10 11 10 11 11 11 12 12 11 11 11 11 12 13 13 14 15 15 16 16 17 17 17 17 17 18 18 18 18 18 18 18
8 8 7 7 7 7 7 7 7 7 6 6 6 6 6 6 6 6 6 6 5 5 5 5 5 5 5 5 5 5 5 5 5 5 5 5 6 6 7 7 7 7 7 8 8 8 9 9 10 10 10 10 10 11 11 11 12 12 12 12 13 12 13 13 13 13 13 14 15 15 16 16 16 17 17 17 17 18 18 18 18 19 19 19 19
7 7 6 6 6 6 7 7 7 7 6 6 6 6 6 6 6 7 7 6 6 6 6 6 6 6 6 6 6 6 6 6 6 6 6 6 6 7 7 7 7 8 8 8 9 9 10 10 10 11 11 11 11 11 12 12 13 13 13 14 13 13 14 15 15 15 15 15 16 16 16 17 17 17 17 18 18 18 18 19 18 19 20 20 20
7 6 6 6 7 7 7 7 7 7 7 7 7 7 7 7 7 7 7 7 7 7 7 7 7 7 7 7 7 7 7 7 7 7 7 7 7 8 8 8 9 9 9 9 9 10 10 10 11 11 11 12 12 12 12 13 13 14 14 14 14 14 14 15 16 16 17 17 17 17 17 18 18 18 18 18 18 18 18 19 19 19 20 21 21
7 7 7 7 7 7 8 8 8 8 8 8 7 7 7 8 8 8 8 8 7 7 8 8 8 9 9 9 9 8 8 8 8 8 8 8 8 9 9 9 10 10 10 10 10 10 10 10 11 11 12 12 12 13 13 13 13 14 14 14 15 14 14 15 15 16 17 17 18 17 17 18 18 18 18 18 19 19 19 19 19 20 20 21 21
8 7 7 7 7 7 8 8 8 8 9 9 8 8 8 8 8 8 8 8 8 8 9 9 9 9 9 9 10 9 9 9 9 9 9 9 9 10 10 10 11 11 11 11 11 11 11 11 11 11 11 12 12 13 13 14 14 14 15 15 15 15 15 15 15 16 16 17 17 17 17 17 18 18 19 19 19 19 20 20 20 20 20 21 21
8 8 8 7 7 7 8 8 8 9 9 9 8 8 8 8 8 8 9 9 9 9 9 10 10 10 10 10 10 10 9 10 10 10 10 10 10 10 11 11 11 11 11 11 12 12 12 12 12 12 12 12 13 13 14 14 14 15 15 15 15 15 15 15 15 16 16 16 17 17 17 18 18 19 19 20 20 20 21 21 21 21 21 21 21
8 9 9 8 8 8 8 8 9 9 9 9 9 8 8 8 9 9 9 9 9 10 10 10 10 10 10 10 11 11 11 11 11 11 11 11 11 11 11 12 12 12 12 12 13 13 13 13 13 13 13 13 14 14 14 14 14 15 15 16 16 16 16 16 16 16 16 16 17 17 18 18 19 19 20 20 20 21 21 22 22 21 22 22 22
9 9 9 9 8 9 8 8 9 9 9 9 9 9 9 9 9 10 10 10 10 10 10 11 11 11 11 11 11 12 12 12 12 13 13 12 12 12 13 12 12 13 13 13 13 14 14 14 14 14 14 14 14 14 14 15 15 15 15 16 16 16 16 16 16 16 16 16 17 17 18 18 19 19 20 20 20 21 21 22 22 22 22 22 23
9 9 9 9 9 9 9 9 9 9 9 9 9 9 9 9 10 10 10 10 10 10 11 11 12 12 12 12 13 13 13 13 14 14 14 14 14 14 14 14 13 13 14 14 14 14 15 15 15 15 16 15 15 15 15 15 15 15 15 15 16 16 16 16 16 16 16 16 17 17 17 18 19 19 19 19 20 21 22 22 22 22 22 22 23
9 9 9 10 10 10 10 10 10 10 9 10 10 10 10 10 10 10 10 10 10 10 10 11 11 12 12 13 13 14 14 14 15 15 15 15 15 15 15 15 15 14 14 15 15 15 15 16 16 16 16 16 16 16 16 16 16 16 16 16 16 16 16 16 16 16 16 17 17 17 17 18 18 18 19 20 20 21 21 21 21 21 21 22 23
9 9 10 10 10 10 10 10 10 10 10 10 10 10 10 10 10 10 10 10 10 10 10 11 11 11 12 12 12 13 14 14 15 15 16 16 16 16 16 16 16 16 16 16 16 16 16 17 17 17 17 17 17 17 17 16 16 16 16 16 16 16 16 15 15 16 16 16 17 17 17 17 18 18 19 20 20 20 20 20 20 20 21 21 22
9 9 10 10 10 10 10 10 10 11 11 11 11 10 10 10 10 10 10 10 11 11 11 11 11 11 12 12 12 12 13 13 14 14 15 16 16 17 17 17 17 18 18 17 17 17 17 17 17 18 18 17 17 17 17 17 17 17 16 16 16 16 16 16 15 15 15 15 16 16 16 17 17 18 18 19 19 19 20 20 20 20 21 21 21
9 9 10 10 10 10 10 10 10 10 10 11 11 10 11 11 11 11 11 11 11 11 11 11 11 11 12 12 12 13 13 13 13 13 14 15 16 16 17 18 18 19 19 19 19 19 18 18 18 18 18 18 18 18 18 17 17 17 17 17 17 16 17 17 17 17 15 15 15 16 16 16 16 17 17 17 18 18 18 19 19 20 20 21 21
9 9 9 9 9 10 10 10 10 10 11 11 11 11 11 11 11 11 11 11 12 12 12 12 12 12 12 12 13 13 13 13 13 13 14 14 14 15 16 17 18 19 19 20 20 20 20 19 18 18 18 19 19 19 19 19 18 18 18 18 17 17 17 18 18 18 17 15 15 16 16 16 16 16 16 16 17 17 17 18 18 18 19 20 20
8 8 8 9 9 9 10 10 10 10 11 11 11 11 11 12 12 12 12 12 13 13 13 13 13 13 13 13 13 14 14 14 14 14 14 14 14 15 15 16 17 18 19 20 20 21 21 21 21 20 19 19 19 20 20 20 20 20 20 20 19 19 19 19 18 18 18 17 16 16 16 16 16 16 16 16 16 16 16 16 17 17 18 18 19
7 7 8 8 8 9 10 10 10 11 11 11 12 12 12 12 13 13 13 13 13 13 14 14 14 14 14 14 14 14 14 14 14 14 15 15 15 15 15 16 16 17 18 19 20 21 21 22 22 22 22 21 21 21 21 21 21 21 21 21 21 21 21 20 20 19 19 19 18 17 17 17 17 17 17 17 16 16 16 16 16 17 17 18 18
6 7 7 8 9 9 10 10 10 11 11 11 12 12 13 13 13 13 14 14 14 14 14 14 14 14 14 14 14 15 15 15 15 15 15 15 15 16 16 16 16 17 17 18 19 20 21 22 23 23 24 23 23 22 22 22 22 23 22 22 22 22 22 22 22 21 20 20 20 19 18 18 18 19 18 18 18 17 17 17 16 17 17 17 18
6 7 7 8 9 9 9 10 11 11 11 12 12 13 14 14 14 14 15 15 15 15 15 15 15 15 15 15 15 15 16 16 16 16 16 16 16 16 17 17 17 17 17 17 18 19 20 22 23 24 24 25 24 24 24 24 23 23 23 23 22 22 22 22 22 22 22 21 21 20 20 19 19 20 20 20 19 19 18 18 17 17 17 18 18
6 7 7 8 8 9 10 10 11 11 12 12 13 13 14 15 15 16 16 16 16 16 16 16 16 16 16 16 16 16 17 17 17 17 17 17 17 17 17 17 17 17 17 17 18 18 19 20 22 23 25 25 26 26 26 26 25 24 23 23 23 23 23 23 23 23 23 22 21 21 21 20 20 21 21 21 21 20 19 19 18 18 17 18 18
6 7 7 8 8 9 10 11 11 11 12 13 13 14 14 15 16 17 17 17 18 18 18 17 17 18 18 18 18 17 17 18 18 18 18 18 18 18 18 18 18 18 18 18 18 18 19 19 20 22 23 25 26 27 27 28 27 26 25 24 24 24 24 24 24 24 24 23 23 22 22 21 20 21 21 21 21 21 21 20 19 19 18 18 17
Wind_Direction
233 227 221 209 202 202 199 198 200 206 209 212 218 226 232 234 234 232 234 238 241 245 251 254 255 255 256 258 260 261 260 260 259 258 256 253 251 250 250 250 251 251 253 255 255 256 256 258 260 262 265 267 270 272 273 272 269 264 259 254 250 244 239 234 231 227 226 225 226 230 232 233 236 241 249 252 251 249 243 238 235 231 232 229 222
227 229 223 209 202 198 195 198 202 206 209 215 221 226 231 233 233 234 236 239 243 247 251 252 253 252 253 255 257 258 259 260 259 260 260 259 257 254 252 253 254 255 257 257 257 258 259 260 262 265 268 270 273 273 273 269 264 259 254 249 244 238 234 231 229 226 226 227 229 234 237 238 236 240 245 248 252 248 241 237 233 230 229 224 220
227 231 221 202 189 185 190 194 199 205 212 219 224 231 238 242 244 245 246 246 247 247 249 251 253 253 254 255 256 257 258 259 259 260 260 260 259 257 255 254 254 256 256 257 259 261 263 265 267 269 270 270 271 271 269 263 256 250 246 242 237 231 228 225 224 223 224 227 231 237 242 239 234 237 242 246 250 242 237 234 230 229 224 220 219
231 223 202 184 168 167 179 185 195 206 214 220 228 239 245 247 249 249 251 250 250 251 253 256 257 257 257 259 260 260 261 260 259 259 258 258 258 257 257 256 255 257 258 260 262 264 266 268 269 271 270 268 267 267 264 256 250 245 240 238 233 226 222 219 217 219 225 232 237 243 247 241 235 237 240 242 242 235 233 230 229 226 222 220 219
222 199 182 174 164 166 175 179 190 201 212 224 234 242 246 249 251 252 256 258 259 260 261 262 262 261 261 262 262 263 262 261 260 259 258 257 257 256 257 257 257 259 262 263 264 265 267 268 269 271 270 267 265 264 260 250 245 242 238 236 230 222 218 216 217 220 227 235 241 247 249 246 240 237 237 238 235 230 227 226 227 222 219 219 217
203 191 185 178 175 180 182 183 190 207 221 230 238 245 250 255 258 261 262 263 264 263 263 264 266 266 265 264 263 262 261 261 261 260 259 257 257 256 256 256 258 261 263 264 266 267 268 268 269 272 270 267 264 262 256 247 242 239 236 233 227 222 217 215 221 225 231 238 243 250 253 250 242 235 234 235 231 226 224 221 220 215 214 214 213
198 184 175 174 180 185 186 192 208 226 232 238 245 253 257 261 265 264 263 263 263 263 264 266 268 268 267 267 265 264 262 262 261 261 260 258 257 256 256 257 260 263 264 266 267 268 268 266 268 270 268 265 263 259 254 247 241 236 233 231 227 224 217 214 223 231 239 246 248 256 258 251 240 231 228 227 224 222 221 217 212 209 209 208 209
171 150 148 160 178 190 197 207 218 224 237 252 258 261 263 267 269 265 263 262 263 266 268 268 268 268 268 267 266 265 264 263 262 262 261 260 259 258 257 259 260 263 266 267 268 268 267 266 266 266 264 264 261 256 252 247 241 237 234 232 228 225 220 218 224 233 247 252 251 260 259 251 240 227 219 216 214 216 216 213 209 207 207 205 205
181 173 168 166 178 195 211 226 231 243 258 267 268 266 266 270 271 267 265 265 269 274 276 272 268 267 267 267 267 266 266 265 263 262 262 261 261 260 259 261 261 264 266 268 268 267 266 265 265 262 261 262 258 251 248 246 243 241 239 235 230 227 224 225 231 240 251 255 253 258 256 249 240 224 212 208 209 213 214 211 209 208 207 205 205
195 194 199 194 196 218 241 254 255 261 265 269 269 266 267 270 271 269 267 268 273 279 280 276 270 268 267 267 268 268 267 265 263 262 261 261 262 262 261 262 263 264 266 267 267 267 267 265 264 261 259 260 256 248 244 244 244 242 242 240 237 235 234 234 241 248 252 253 251 251 248 243 237 222 207 205 208 213 216 214 212 210 207 204 205
206 204 214 219 232 247 253 258 260 262 262 265 265 267 269 269 269 269 269 271 274 278 280 276 273 270 267 267 268 269 267 265 263 261 260 261 262 263 263 263 263 264 265 265 266 267 267 266 264 260 257 258 254 245 242 243 243 241 242 244 244 246 248 249 253 256 251 247 246 242 237 235 231 216 203 204 208 212 216 213 210 207 203 200 201
221 224 232 238 248 253 250 253 258 260 264 267 269 273 274 273 271 271 272 274 275 277 277 276 274 271 269 268 268 269 268 265 263 261 261 261 262 264 264 264 264 263 263 262 263 265 266 265 263 259 256 256 251 244 242 242 242 242 243 245 248 251 253 258 261 257 248 238 238 235 229 230 226 211 199 200 204 206 208 203 203 202 199 198 198
223 229 233 238 248 254 253 257 264 267 273 276 275 277 279 279 272 271 275 277 277 277 278 278 276 273 270 270 271 271 270 268 265 263 262 264 265 266 265 264 264 262 261 261 261 262 263 263 260 256 253 252 249 243 241 241 241 242 244 245 249 253 254 259 259 253 243 230 229 228 223 225 222 208 195 196 202 203 203 199 198 199 198 196 195
219 219 216 220 229 252 266 271 273 277 284 283 279 280 282 280 271 275 282 281 278 279 283 283 280 275 272 273 273 273 272 270 267 265 263 264 265 265 265 263 263 262 260 259 258 259 260 260 256 250 249 250 249 244 241 239 240 242 243 246 249 253 256 260 255 246 234 222 219 217 219 222 217 205 194 193 200 203 201 199 197 195 194 192 192
184 191 195 218 237 254 272 276 267 272 288 285 287 290 284 283 280 283 286 284 282 283 285 283 281 277 275 274 274 274 273 271 269 267 265 264 264 263 263 262 262 262 260 258 257 257 257 257 252 247 246 248 250 246 242 240 241 243 244 247 248 251 255 257 250 237 224 216 212 211 215 216 209 202 199 196 197 199 195 194 191 187 187 189 191
145 164 191 219 245 251 270 283 262 260 280 282 289 294 291 291 292 293 293 290 288 287 285 283 281 278 276 274 274 273 271 271 270 268 265 263 263 262 261 260 260 261 260 258 256 255 255 253 249 245 244 245 248 246 242 240 241 243 245 246 247 249 253 253 244 231 220 215 212 210 212 212 207 205 205 200 194 192 190 187 181 180 184 183 184
167 185 191 190 239 261 296 24 44 252 278 289 296 303 307 307 307 306 304 301 296 290 285 283 281 278 275 273 274 274 272 270 268 266 263 262 262 261 260 259 259 260 259 258 256 255 252 251 247 243 242 243 245 245 242 240 241 243 244 245 247 249 251 250 242 229 218 216 215 211 213 213 210 211 212 208 198 193 191 185 178 177 180 174 168
138 162 147 117 69 65 84 76 63 43 350 331 330 326 327 325 325 323 319 315 304 294 286 283 280 278 274 274 276 275 275 272 269 264 261 261 261 261 260 259 259 260 260 259 257 254 249 248 246 241 240 241 243 244 243 241 241 242 243 243 246 249 248 246 242 230 218 217 218 215 216 214 209 211 213 212 203 196 196 190 182 178 175 169 161
86 115 109 111 86 67 68 57 37 32 26 1 354 348 345 340 342 341 333 326 316 305 294 289 283 279 275 274 274 273 273 271 269 264 261 261 259 259 259 258 259 261 262 262 260 255 250 246 242 238 237 239 240 242 243 243 242 241 242 243 245 246 243 239 240 230 219 220 221 219 220 218 216 215 211 211 206 200 202 201 194 187 182 180 175
80 98 106 115 89 57 40 31 13 11 14 9 1 355 354 351 352 348 342 336 333 324 309 301 291 285 277 273 273 271 270 267 266 264 262 261 258 257 258 259 259 261 263 264 262 256 250 244 239 235 235 237 239 242 244 244 243 241 242 243 243 244 240 236 240 234 222 222 224 224 223 222 224 223 217 215 213 209 208 209 207 202 197 195 192
89 96 94 90 73 56 44 38 21 14 10 8 359 353 355 357 358 356 352 344 342 339 329 320 309 302 289 279 277 274 272 270 268 264 261 260 259 256 256 258 258 260 262 262 260 254 247 241 236 232 233 236 238 241 243 244 243 242 242 242 242 242 241 237 241 238 226 225 227 228 225 223 226 227 223 221 220 218 214 212 214 212 209 205 199
88 84 76 71 67 57 49 41 27 20 11 7 4 3 2 1 3 4 3 357 353 353 348 343 333 326 312 295 286 282 281 278 273 266 262 260 259 258 256 256 257 257 256 257 255 250 243 237 234 231 232 234 236 237 239 242 242 242 241 240 240 240 242 241 242 237 229 229 230 229 226 224 227 229 228 226 224 224 220 216 216 215 214 210 203
81 79 74 68 64 57 46 36 22 13 8 9 11 12 12 10 8 7 9 9 8 6 3 357 348 343 334 323 306 297 293 287 281 271 267 264 261 261 259 257 255 252 249 250 249 246 240 235 232 229 229 230 232 235 238 242 243 243 241 240 240 240 241 242 243 239 232 232 231 229 227 225 228 230 231 229 226 227 224 220 218 217 216 213 209
80 78 75 70 64 58 48 40 29 19 15 16 18 20 20 15 11 10 10 12 13 11 9 3 359 354 344 340 328 314 310 303 293 280 275 271 266 265 263 259 255 251 249 248 247 244 240 236 234 231 229 230 232 237 241 244 245 245 242 241 242 241 243 242 243 240 235 234 231 228 228 228 229 230 232 231 228 227 227 225 222 220 219 216 213
83 79 76 72 66 62 57 51 42 35 31 25 23 21 19 14 9 8 5 4 6 7 7 3 359 354 345 342 334 320 319 318 310 295 287 280 274 270 265 263 259 254 252 249 245 244 242 239 238 235 232 232 235 239 244 247 247 246 244 243 245 245 245 245 245 242 236 235 231 228 229 230 232 232 233 232 230 228 229 228 225 222 222 219 217
88 83 79 75 70 66 60 57 50 45 42 35 28 21 16 10 4 1 359 359 1 2 3 359 356 352 347 342 330 318 315 314 312 304 294 284 280 276 268 267 264 257 253 251 247 244 243 241 241 239 236 235 236 241 245 247 248 248 246 245 247 248 248 248 247 241 236 236 234 230 231 232 233 234 234 234 231 231 230 229 227 225 225 223 221
89 84 81 77 71 66 61 59 54 49 46 39 33 25 17 8 0 357 356 355 356 353 348 346 345 343 339 336 325 317 311 305 303 302 300 287 281 277 267 266 268 261 257 255 252 249 245 244 243 242 242 240 239 242 245 247 249 250 249 247 248 249 251 250 246 240 237 238 237 234 234 234 234 235 236 234 232 232 231 231 230 228 226 225 224
87 82 78 74 67 63 58 55 51 46 41 35 30 22 14 7 359 357 353 348 349 345 339 335 333 330 326 323 318 311 304 302 299 296 300 291 284 280 267 266 270 267 263 257 253 252 249 247 245 244 245 244 243 245 247 249 251 251 249 248 247 248 251 250 246 243 240 240 239 237 237 236 236 237 237 235 233 232 233 233 233 231 228 226 226
82 78 73 68 62 58 53 49 44 38 32 27 24 15 8 4 356 354 351 345 346 345 341 336 330 328 326 320 317 311 301 300 299 293 294 289 285 281 268 266 270 266 263 259 255 252 251 250 247 245 247 247 247 248 250 251 252 252 249 247 247 247 250 251 247 245 243 240 239 238 238 238 238 238 238 236 235 235 235 234 234 233 230 227 227
77 72 68 62 57 52 48 44 38 33 28 23 18 11 5 359 351 351 351 346 342 338 338 336 328 327 326 321 316 313 306 301 299 291 289 286 283 279 269 267 269 265 261 260 258 255 253 251 249 247 247 249 249 249 250 251 252 252 249 248 248 247 249 252 249 245 243 241 240 239 239 240 240 239 238 238 237 237 237 236 233 233 232 229 227
72 67 64 60 54 49 44 38 33 28 23 19 14 9 4 357 352 351 349 343 337 331 331 333 327 321 319 318 315 314 310 303 298 292 290 286 282 279 273 273 273 269 264 262 262 261 259 256 254 252 251 251 252 252 252 251 252 252 251 249 249 248 250 253 251 247 245 244 242 241 240 240 241 241 240 238 238 239 237 237 235 233 232 230 228
66 61 58 56 48 41 35 29 25 22 20 17 12 7 0 356 354 349 344 337 331 326 324 325 324 320 316 313 311 310 307 301 296 291 290 288 284 281 279 279 277 273 269 266 266 266 264 262 261 260 258 256 256 255 254 254 253 253 253 251 251 251 252 254 253 250 248 246 244 243 242 242 241 241 242 240 239 240 238 237 237 235 233 232 230
56 49 44 39 30 23 20 16 11 10 10 10 7 3 358 354 351 346 341 334 327 323 318 315 316 318 318 314 310 305 302 299 296 290 287 288 286 284 283 282 278 275 272 270 270 269 267 267 265 264 263 261 259 258 256 256 255 255 255 254 256 257 254 253 254 252 251 249 246 244 242 242 242 242 242 241 240 240 239 238 238 236 235 234 233
41 34 28 19 9 4 4 2 359 357 354 353 351 351 349 347 344 342 337 331 326 321 315 310 308 311 313 314 313 308 303 299 295 290 286 285 283 282 282 282 280 278 275 274 273 271 269 269 267 267 266 264 262 260 259 258 258 257 257 256 258 259 256 255 255 253 252 251 249 246 243 243 243 242 242 241 241 240 239 239 239 237 236 236 235
29 23 15 5 359 355 354 353 354 352 348 344 339 336 336 334 334 334 330 326 322 318 315 312 308 308 308 309 310 309 307 304 298 292 287 285 283 280 279 279 279 278 277 276 275 274 272 271 270 269 268 265 264 264 262 261 260 259 258 257 258 259 258 258 257 255 253 251 249 247 245 244 243 243 242 242 242 240 239 240 240 238 237 237 237
23 16 7 358 353 353 353 352 351 349 346 342 336 331 328 327 327 326 325 322 317 314 314 311 308 308 307 306 307 306 306 305 303 298 292 289 287 283 280 279 277 275 275 274 274 274 273 272 272 270 269 268 268 267 265 263 262 261 259 258 259 259 260 259 257 255 253 251 249 246 245 244 242 242 243 242 242 241 240 241 241 240 239 239 238
23 17 9 2 357 356 357 355 351 346 343 340 335 332 328 326 325 324 324 321 317 315 313 311 308 306 304 303 303 302 301 302 302 301 298 293 291 287 281 280 277 274 273 272 272 273 271 270 270 270 269 269 270 270 269 266 264 263 262 261 261 260 259 259 257 255 253 251 249 247 246 244 243 243 243 243 243 243 242 242 242 241 240 240 240
18 14 13 12 8 3 359 356 350 345 343 339 335 332 330 328 326 325 324 321 318 317 316 314 311 308 304 301 299 297 297 299 299 298 297 293 292 291 286 283 280 276 274 272 273 273 271 269 269 269 268 268 269 269 269 267 266 264 264 263 263 262 261 259 257 254 253 252 250 249 247 246 245 245 245 245 245 244 243 243 243 242 241 240 240
13 14 18 18 13 7 1 356 351 347 344 342 338 334 332 330 328 326 324 322 319 318 317 314 313 311 307 304 301 298 297 297 295 293 293 290 287 288 288 286 283 279 277 275 275 274 272 270 269 269 269 268 267 266 266 266 266 265 265 264 264 263 262 260 257 255 253 252 251 250 249 247 247 247 247 247 247 247 247 245 244 243 243 242 241
18 21 22 16 11 8 5 3 360 355 352 350 347 343 339 337 335 333 330 328 324 321 317 314 313 311 308 305 301 300 298 296 294 292 291 289 285 284 283 284 283 280 278 276 275 275 272 270 270 270 271 270 268 266 265 265 265 265 264 264 263 263 262 260 258 256 254 253 251 250 250 248 248 248 248 247 247 249 250 249 248 246 245 244 243
23 21 20 16 14 13 12 11 9 5 4 1 358 356 353 350 349 347 343 340 336 331 326 321 318 315 312 309 304 302 299 296 295 293 292 289 286 283 281 281 281 279 277 276 275 274 272 271 270 270 271 270 269 268 266 266 265 264 264 264 264 263 262 261 259 256 255 254 252 251 250 249 249 249 248 248 248 248 249 250 249 247 246 245 244
23 21 20 20 20 20 21 19 17 16 14 10 7 5 2 0 360 358 356 354 351 347 342 335 331 327 324 320 315 310 306 301 298 296 293 290 287 284 282 281 280 278 278 277 275 274 273 272 271 271 270 269 269 267 266 266 264 262 263 264 265 262 260 261 259 257 256 254 253 252 250 249 250 250 249 249 249 249 249 248 247 246 246 246 246
24 23 23 25 25 24 24 22 20 18 15 13 11 8 5 4 3 1 360 358 357 355 352 348 343 339 336 333 329 324 319 313 308 303 298 294 290 286 284 282 280 279 279 278 276 276 275 274 272 271 270 269 268 267 264 263 262 262 263 262 263 262 260 260 259 259 259 255 251 251 250 250 250 250 250 250 250 249 249 247 246 247 247 247 247
24 25 25 25 24 22 20 19 18 15 13 11 10 8 6 5 4 2 0 358 357 355 354 353 349 345 343 341 338 335 331 326 321 316 309 303 297 292 288 285 283 281 279 278 277 277 276 275 273 271 270 268 268 267 264 261 260 261 261 260 260 260 259 259 260 261 260 256 251 249 250 251 251 251 249 248 249 249 249 247 247 248 248 248 248
23 23 21 19 18 17 15 14 13 12 10 10 9 7 6 5 3 1 360 358 356 354 352 350 348 345 342 340 338 336 335 332 329 326 320 315 309 302 296 291 287 284 281 279 278 276 275 274 273 272 270 268 267 267 265 262 261 259 258 258 259 258 257 258 261 259 257 256 254 250 249 251 251 250 249 249 248 248 249 248 247 248 247 247 248
23 21 16 14 13 12 10 10 10 9 9 9 9 8 7 5 3 1 359 356 355 353 350 347 344 342 340 337 335 334 333 331 330 328 325 321 317 312 307 301 295 290 285 282 280 277 275 273 272 271 269 268 267 267 265 263 262 261 259 257 257 256 257 259 259 257 256 256 255 250 249 250 250 250 250 249 248 247 249 249 248 247 248 248 248
20 16 13 11 11 9 8 8 8 8 8 9 9 8 8 5 3 1 358 355 352 349 346 343 341 339 338 336 335 334 333 330 328 328 326 324 321 318 315 310 305 299 293 287 283 279 276 273 271 270 268 267 267 267 266 264 262 261 260 259 258 256 257 257 255 255 257 256 254 250 249 250 250 250 250 249 248 249 250 250 249 248 248 249 248
11 12 11 10 9 8 8 8 8 8 8 8 8 7 5 3 1 358 355 352 348 344 341 340 338 336 335 334 333 333 332 331 329 327 326 324 322 320 318 316 313 309 304 297 290 284 279 275 272 270 268 267 266 265 265 265 263 261 261 261 260 258 256 256 255 253 253 255 254 252 251 252 251 250 250 250 250 250 251 251 250 250 250 249 248
6 8 9 7 7 6 8 8 8 7 5 3 2 1 360 358 356 353 351 348 344 342 339 338 337 336 334 333 331 330 330 330 329 327 325 323 321 320 319 317 315 314 311 307 301 294 286 279 274 271 269 267 266 264 263 264 263 262 262 262 262 260 257 255 255 253 251 251 253 252 253 253 252 250 250 250 251 250 251 251 250 250 250 249 248
4 5 4 4 4 4 5 6 4 2 360 358 356 355 353 352 351 349 347 344 341 339 338 336 335 335 334 332 330 328 327 326 325 325 324 322 320 318 317 316 315 314 313 311 308 303 297 289 281 275 271 268 266 265 263 262 262 262 263 262 262 262 259 255 253 252 251 250 251 252 253 253 253 252 251 250 250 249 249 249 250 250 249 250 250
2 2 3 2 1 1 2 2 359 355 354 354 354 352 350 348 347 346 344 342 339 337 336 334 332 332 332 330 329 327 325 323 322 321 321 320 319 318 317 315 314 313 312 311 309 306 303 298 292 284 277 272 268 266 264 262 261 261 261 260 260 259 259 257 254 252 251 250 251 252 253 253 253 253 251 250 249 248 249 248 248 249 249 250 252